This is the latest recevied weather packets stored in our database for station/object W5COG. If no packets are shown the sender has not sent any weather packets the latest 10 day(s).
| Time | Temp. | Humidity | Pressure | Rain* | Wind** | Luminosity | Snow |
|---|---|---|---|---|---|---|---|
| 1778254528 | 21.11° C | 52% | 1011.9 hPa | 0 mm | - | 689 W/m² | - |
| 1778254229 | 20.56° C | 53% | 1012.1 hPa | 0 mm | - | 678 W/m² | - |
| 1778253928 | 20.56° C | 54% | 1012.1 hPa | 0 mm | - | 665 W/m² | - |
| 1778253028 | 20° C | 55% | 1012.2 hPa | 0 mm | - | 628 W/m² | - |
| 1778252728 | 20° C | 56% | 1012.3 hPa | 0 mm | - | 550 W/m² | - |
| 1778252429 | 19.44° C | 56% | 1012.3 hPa | 0 mm | - | 600 W/m² | - |
| 1778252129 | 19.44° C | 57% | 1012.4 hPa | 0 mm | - | 587 W/m² | - |
| 1778251828 | 19.44° C | 57% | 1012.5 hPa | 0 mm | - | 574 W/m² | - |
| 1778251529 | 19.44° C | 57% | 1012.6 hPa | 0 mm | - | 561 W/m² | - |
| 1778251229 | 19.44° C | 58% | 1012.5 hPa | 0 mm | - | 547 W/m² | - |
| 1778250929 | 18.89° C | 58% | 1012.6 hPa | 0 mm | - | 532 W/m² | - |
| 1778250629 | 18.89° C | 59% | 1012.7 hPa | 0 mm | - | 517 W/m² | - |
| 1778250329 | 18.33° C | 60% | 1012.8 hPa | 0 mm | - | 503 W/m² | - |
| 1778250029 | 18.33° C | 60% | 1012.9 hPa | 0 mm | - | 488 W/m² | - |
| 1778249729 | 18.33° C | 60% | 1013 hPa | 0 mm | - | 474 W/m² | - |
| 1778249428 | 17.78° C | 61% | 1013 hPa | 0 mm | - | 459 W/m² | - |
| 1778249129 | 17.78° C | 63% | 1013 hPa | 0 mm | - | 444 W/m² | - |
| 1778248829 | 17.22° C | 63% | 1013 hPa | 0 mm | - | 427 W/m² | - |
| 1778248529 | 16.67° C | 63% | 1013.2 hPa | 0 mm | - | 411 W/m² | - |
| 1778248229 | 16.67° C | 64% | 1013.2 hPa | 0 mm | - | 396 W/m² | - |
| 1778247929 | 16.67° C | 66% | 1013.2 hPa | 0 mm | - | 380 W/m² | - |
| 1778247629 | 16.11° C | 66% | 1013.3 hPa | 0 mm | - | 363 W/m² | - |
| 1778247329 | 16.11° C | 67% | 1013.3 hPa | 0 mm | - | 347 W/m² | - |
| 1778247029 | 15.56° C | 68% | 1013.3 hPa | 0 mm | - | 331 W/m² | - |
| 1778246729 | 15° C | 69% | 1013.1 hPa | 0 mm | - | 314 W/m² | - |
* Rain latest hour (hover to see other rain measurements)
** Current wind speed in m/s (hover to see current wind gust speed)